Location: Newark
(35.0033°N, 81.0878°W)
Time: 06:22:26
(UTC+00:00)

Envisat - Pass Details

Date: 30 October 2020
Orbit: 764 x 766 km, 98.1° (Epoch: 30 November)

Event Time Altitude Azimuth Distance (km) Brightness Sun altitude
Rises 10:11:58 0° 32° (NNE) 3,235 6.6 -19.3°
Reaches altitude 10° 10:15:04 10° 52° (NE) 2,303 6.1 -18.7°
Maximum altitude 10:18:23 17° 93° (E) 1,841 6.0 -18.0°
Drops below altitude 10° 10:21:40 10° 134° (SE) 2,293 6.2 -17.4°
Sets 10:24:44 0° 154° (SSE) 3,214 6.7 -16.7°
